Regional Weather Roundup
Issued by NWS Midland/Odessa, TX

Skip options and go directly to product.
Home | Oldest Version | Previous Version | Current Version | All | Text Only | Save Text | Print | Product List | Glossary On

Skip product version selection by date and time.   
671
ASUS44 KMAF 312001
RWRMAF
MIDLAND AREA WEATHER ROUNDUP
NATIONAL WEATHER SERVICE MIDLAND TX
300 PM CDT TUE MAY 31 2016

...IN SOUTHWEST TEXAS AND SOUTHEAST NEW MEXICO...

CITY           SKY/WX    TMP DP  RH WIND       PRES   REMARKS
ALPINE         SUNNY     80  52  38 SW13      30.01F
ANDREWS        FAIR      78  55  45 S8        29.91F
ARTESIA        SUNNY     82  50  32 VRB3      29.88F
BIG SPRING     SUNNY     80  55  42 SW8       29.89F
CARLSBAD       MOSUNNY   87  50  27 SE12G18   29.85F
DRYDEN           N/A     75  63  66 S10       29.86F
FORT STOCKTON  NOT AVBL
GUAD PASS      NOT AVBL
HOBBS          MOSUNNY   82  48  30 S6        29.92F
MARFA          SUNNY     77  57  50 SE10G20   29.98F
MIDLAND AIRPK  SUNNY     84  51  32 W9        29.90F
MIDLAND INTL   SUNNY     83  52  34 S13       29.88F
ODESSA         SUNNY     80  56  43 VRB3      29.89F
PECOS          SUNNY     87  51  29 CALM      29.85F
PRESIDIO       FAIR      83  57  41 CALM      29.87F
SEMINOLE       SUNNY     81  53  38 SE3       29.93F
SNYDER           N/A     80  63  55 N8        29.87F
WINK           MOSUNNY   86  51  29 E8G23     29.84F
$$
...OTHER STATIONS IN TEXAS...

CITY           SKY/WX    TMP DP  RH WIND       PRES   REMARKS
ABILENE        CLOUDY    78  67  68 N13G24    29.85F
AMARILLO       PTSUNNY   76  52  43 E13       29.98F
AUSTIN         CLOUDY    77  74  90 E3        29.82F
BROWNSVILLE    MOSUNNY   89  74  60 SE17      29.80F
CORPUS CHRISTI PTSUNNY   88  75  65 SE21      29.81F
DALLAS FTW     TSTM      81  71  71 NW9       29.83F
DEL RIO        LGT RAIN  76  72  87 NE7       29.78F
EL PASO        MOSUNNY   85  41  21 SW12G18   29.89F
HOUSTON INT    PTSUNNY   86  70  58 SE14G22   29.85F
LUBBOCK        MOSUNNY   79  57  46 E9        29.93F
SAN ANGELO     MOSUNNY   86  63  45 W6        29.83F
SAN ANTONIO    TSTM      69  66  90 NW30G41   29.85R VSB 1/4
WACO           CLOUDY    82  70  66 S13       29.84F
WICHITA FALLS  NOT AVBL
$$
...OTHER LOCATIONS IN NEW MEXICO...

CITY           SKY/WX    TMP DP  RH WIND       PRES   REMARKS
ALAMAGORDO     CLOUDY    81  45  28 S6        29.92F
ALBUQUERQUE    CLOUDY    74  40  29 SE20      29.99S
CANNON AFB     NOT AVBL
CLOVIS         PTSUNNY   73  54  49 SE14      29.99F
HOLLOMAN AFB   MOSUNNY   83  44  25 S15       29.89F
ROSWELL        CLOUDY    80  46  30 N8        29.91F
RUIDOSO        NOT AVBL
SANTA FE       LGT RAIN  72  37  28 E21       30.04R
TRUTH OR CONSE LGT RAIN  77  46  33 SE7       29.94F
TUCUMCARI      MOSUNNY   81  50  33 E16       29.96F
$$

USA.gov is the U.S. government's official web portal to all federal, state and local government web resources and services.